Location: Bishop�s Knoyle
(51.0728°N, 2.1714°W)
Time: 22:59:24
(UTC+00:00)

CENTAUR R/B - Pass Details

Date: 21 January 2021
Orbit: 742 x 1446 km, 63.5° (Epoch: 07 March)

Event Time Altitude Azimuth Distance (km) Brightness Sun altitude
Rises 17:33:41 0° 308° (NW) 4,280 6.3 -8.3°
Reaches altitude 10° 17:38:08 10° 286° (WNW) 3,419 6.2 -8.9°
Maximum altitude 17:42:04 14° 258° (WSW) 3,171 6.6 -9.5°
Drops below altitude 10° 17:46:07 10° 230° (SW) 3,536 6.7 -10.1°
Sets 17:50:54 0° 208° (SSW) 4,529 6.7 -10.8°
